1513501200.76,2799,6.31,72582.0,-10.75,-16.89,-17.07,0,*51
1513501202.03,2800,6.31,72580.5,-10.75,-16.89,-17.07,0,*5E
1513501203.26,2801,6.38,72586.3,-10.77,-16.93,-17.11,0,*51
1513501204.53,2802,6.38,72586.3,-10.75,-16.89,-17.07,0,*5C
1513501205.79,2803,6.38,72584.5,-10.75,-16.89,-17.07,0,*5D
1513501207.03,2804,6.38,72586.3,-10.75,-16.89,-16.93,0,*56
1513501208.26,2805,6.38,72586.3,-10.75,-16.75,-16.93,0,*54
1513501209.53,2806,6.38,72584.0,-10.75,-16.75,-17.03,0,*5F
1513501210.79,2807,6.38,72584.0,-10.75,-16.75,-17.03,0,*5E
1513501212.08,2808,6.31,72582.8,-10.75,-16.65,-17.03,0,*50
1513501213.32,2809,6.38,72586.8,-10.75,-16.75,-16.93,0,*58
1513501214.56,2810,6.38,72586.8,-10.73,-16.75,-17.03,0,*5E
1513501215.83,2811,6.38,72588.3,-10.75,-16.79,-17.07,0,*51
1513501217.06,2812,6.38,72586.5,-10.77,-16.93,-17.21,0,*50
1513501218.32,2813,6.38,72586.8,-10.75,-16.89,-17.07,0,*5C
1513501219.58,2814,6.38,72586.8,-10.75,-16.79,-17.17,0,*55
1513501220.85,2815,6.38,72586.0,-10.75,-16.79,-17.07,0,*55
1513501222.09,2816,6.38,72584.0,-10.77,-16.83,-17.11,0,*56
1513501223.36,2817,6.38,72586.8,-10.75,-16.79,-17.07,0,*57
1513501224.63,2818,6.38,72582.3,-10.75,-16.75,-17.07,0,*54
1513501225.86,2819,6.38,72586.8,-10.77,-16.79,-17.11,0,*5C
1513501227.13,2820,6.38,72586.3,-10.75,-16.75,-17.07,0,*5F
1513501228.4,2821,6.31,72582.3,-10.75,-16.79,-17.07,0,*52
1513501229.67,2822,6.38,72586.0,-10.75,-16.79,-17.03,0,*55
1513501230.87,2823,6.38,72584.5,-10.77,-16.79,-16.97,0,*5A
1513501232.1,2824,6.38,72586.8,-10.77,-16.69,-16.97,0,*5C
1513501233.34,2825,6.38,72584.3,-10.75,-16.75,-16.93,0,*56
1513501234.54,2826,6.38,72584.5,-10.77,-16.79,-16.97,0,*5F
1513501235.81,2827,6.38,72584.3,-10.75,-16.79,-17.03,0,*50
1513501237.04,2828,6.38,72586.8,-10.75,-16.75,-16.93,0,*5B
1513501238.31,2829,6.38,72584.0,-10.75,-16.75,-17.03,0,*52
1513501239.55,2830,6.31,72580.5,-10.77,-16.83,-17.07,0,*55
1513501240.78,2831,6.38,72582.3,-10.75,-16.79,-16.93,0,*5F
1513501242.01,2832,6.38,72588.3,-10.75,-16.75,-16.93,0,*50
1513501243.25,2833,6.38,72584.0,-10.75,-16.79,-16.93,0,*5D
1513501244.48,2834,6.38,72586.5,-10.75,-16.79,-16.93,0,*5A
1513501245.72,2835,6.38,72586.3,-10.75,-16.75,-16.93,0,*57
1513501246.95,2836,6.38,72584.3,-10.75,-16.75,-16.89,0,*5F
1513501248.18,2837,6.38,72586.5,-10.77,-16.69,-16.83,0,*5B
1513501249.4,2838,6.38,72586.8,-10.73,-16.59,-16.79,0,*56
1513501250.63,2839,6.38,72588.5,-10.75,-16.75,-16.89,0,*50
1513501251.87,2840,6.38,72584.3,-10.77,-16.69,-16.83,0,*5B
1513501253.1,2841,6.38,72586.8,-10.77,-16.69,-16.83,0,*5A
1513501254.33,2842,6.31,72582.8,-10.77,-16.69,-16.83,0,*59
1513501255.6,2843,6.38,72584.3,-10.75,-16.65,-16.79,0,*53
1513501256.83,2844,6.38,72586.0,-10.77,-16.65,-16.83,0,*53
1513501258.07,2845,6.38,72584.8,-10.77,-16.65,-16.83,0,*52
1513501259.3,2846,6.38,72586.0,-10.77,-16.55,-16.69,0,*56
1513501260.55,2847,6.38,72586.8,-10.75,-16.45,-16.75,0,*59
1513501261.8,2848,6.31,72582.3,-10.77,-16.51,-16.69,0,*5C
1513501263.03,2849,6.38,72588.3,-10.77,-16.51,-16.79,0,*5C
1513501264.29,2850,6.38,72586.8,-10.77,-16.51,-16.69,0,*55
1513501265.54,2851,6.38,72590.0,-10.77,-16.51,-16.69,0,*54
1513501266.8,2852,6.38,72588.8,-10.77,-16.51,-16.69,0,*57
1513501268.03,2853,6.38,72584.5,-10.77,-16.55,-16.69,0,*52
1513501269.24,2854,6.38,72586.5,-10.77,-16.55,-16.79,0,*54
1513501270.45,2855,6.38,72582.0,-10.77,-16.55,-16.79,0,*55
1513501271.71,2856,6.38,72584.8,-10.77,-16.51,-16.69,0,*53
1513501272.94,2857,6.38,72588.8,-10.77,-16.51,-16.79,0,*53
1513501274.17,2858,6.38,72584.0,-10.77,-16.51,-16.79,0,*5C
1513501275.42,2859,6.38,72586.3,-10.77,-16.51,-16.69,0,*5C
1513501276.63,2860,6.31,72582.5,-10.77,-16.55,-16.79,0,*53
1513501277.87,2861,6.38,72584.0,-10.77,-16.41,-16.69,0,*56
1513501279.1,2862,6.38,72586.0,-10.77,-16.51,-16.79,0,*55
1513501280.33,2863,6.38,72586.0,-10.77,-16.51,-16.79,0,*54
1513501281.57,2864,6.38,72586.5,-10.75,-16.45,-16.75,0,*58
1513501282.8,2865,6.38,72584.3,-10.77,-16.51,-16.79,0,*52
1513501284.04,2866,6.38,72590.5,-10.79,-16.55,-16.93,0,*5F
1513501285.27,2867,6.38,72584.5,-10.77,-16.51,-16.83,0,*55
1513501286.52,2868,6.38,72588.3,-10.79,-16.51,-16.93,0,*55
1513501287.76,2869,6.38,72588.5,-10.79,-16.55,-16.83,0,*51
1513501289.0,2870,6.38,72586.8,-10.79,-16.55,-16.93,0,*58
1513501290.23,2871,6.38,72590.3,-10.79,-16.55,-16.93,0,*59
1513501291.47,2872,6.38,72586.3,-10.81,-16.69,-16.97,0,*56
1513501292.73,2873,6.38,72586.5,-10.79,-16.65,-16.93,0,*58
1513501293.96,2874,6.38,72590.5,-10.81,-16.69,-16.97,0,*50
1513501295.23,2875,6.38,72586.5,-10.79,-16.65,-16.97,0,*5A
1513501296.49,2876,6.38,72584.8,-10.79,-16.65,-16.93,0,*5D
1513501297.75,2877,6.38,72584.8,-10.79,-16.65,-16.97,0,*58
1513501299.01,2878,6.38,72588.0,-10.81,-16.69,-17.03,0,*50
1513501300.27,2879,6.38,72588.3,-10.79,-16.65,-16.97,0,*56
1513501301.51,2880,6.38,72584.8,-10.81,-16.75,-17.03,0,*5A
1513501302.78,2881,6.38,72588.0,-10.81,-16.69,-17.11,0,*55
1513501304.02,2882,6.38,72590.3,-10.81,-16.75,-17.03,0,*58
1513501305.25,2883,6.38,72588.3,-10.81,-16.75,-17.17,0,*5C
1513501306.55,2884,6.38,72586.8,-10.79,-16.69,-17.07,0,*50
1513501307.81,2885,6.38,72584.5,-10.79,-16.83,-17.11,0,*52
1513501309.05,2886,6.38,72588.5,-10.81,-16.83,-17.17,0,*50
1513501310.28,2887,6.38,72586.8,-10.81,-16.89,-17.17,0,*5B
1513501311.51,2888,6.38,72590.0,-10.81,-16.89,-17.25,0,*55
1513501312.75,2889,6.38,72588.8,-10.81,-16.89,-17.25,0,*54
1513501313.98,2890,6.38,72584.8,-10.81,-16.89,-17.25,0,*5C
1513501315.22,2891,6.38,72584.5,-10.81,-16.89,-17.25,0,*5D
1513501316.42,2892,6.38,72584.8,-10.81,-16.83,-17.31,0,*51
1513501317.63,2893,6.38,72584.8,-10.81,-16.83,-17.31,0,*50
1513501318.89,2894,6.38,72586.3,-10.83,-16.89,-17.25,0,*5A
1513501320.15,2895,6.38,72584.8,-10.83,-16.89,-17.25,0,*5B
1513501321.41,2896,6.38,72582.3,-10.83,-16.83,-17.17,0,*53
1513501322.67,2897,6.38,72584.5,-10.83,-16.89,-17.25,0,*59
1513501323.93,2898,6.38,72586.3,-10.87,-16.93,-17.21,0,*5D
1513501325.18,2899,6.38,72590.3,-10.83,-16.89,-17.25,0,*57
1513501326.44,2900,6.38,72586.3,-10.83,-16.97,-17.25,0,*59
1513501327.7,2901,6.38,72586.5,-10.83,-16.97,-17.17,0,*59
1513501328.96,2902,6.38,72586.8,-10.83,-16.89,-17.17,0,*55
1513501330.19,2903,6.38,72586.3,-10.87,-16.93,-17.35,0,*5B
1513501331.46,2904,6.38,72584.5,-10.87,-17.07,-17.35,0,*50
1513501332.73,2905,6.38,72586.3,-10.87,-17.07,-17.35,0,*51
1513501334.02,2906,6.38,72584.3,-10.87,-17.03,-17.41,0,*55
1513501335.31,2907,6.38,72584.5,-10.87,-17.07,-17.41,0,*50
1513501336.6,2908,6.38,72584.5,-10.87,-17.17,-17.41,0,*5E
1513501337.87,2909,6.38,72586.5,-10.87,-17.07,-17.35,0,*5D
1513501339.16,2910,6.38,72586.5,-10.87,-17.17,-17.41,0,*57
1513501340.45,2911,6.38,72588.8,-10.87,-17.17,-17.41,0,*56
1513501341.74,2912,6.38,72586.3,-10.87,-17.17,-17.41,0,*55
1513501343.03,2913,6.38,72586.5,-10.91,-17.21,-17.45,0,*52
1513501344.32,2914,6.38,72586.3,-10.91,-17.21,-17.45,0,*55
1513501345.55,2915,6.38,72584.5,-10.89,-17.07,-17.49,0,*55
1513501346.84,2916,6.38,72584.8,-10.91,-17.25,-17.55,0,*52
1513501348.12,2917,6.38,72586.0,-10.91,-17.25,-17.55,0,*53
1513501349.41,2918,6.38,72588.3,-10.91,-17.25,-17.59,0,*50
1513501350.68,2919,6.38,72584.8,-10.91,-17.35,-17.59,0,*50
1513501351.97,2920,6.38,72586.3,-10.91,-17.21,-17.59,0,*5F
1513501353.23,2921,6.38,72584.5,-10.93,-17.25,-17.59,0,*58
1513501354.49,2922,6.38,72586.8,-10.91,-17.41,-17.69,0,*58
1513501355.76,2923,6.38,72586.0,-10.91,-17.41,-17.73,0,*52
1513501356.99,2924,6.38,72590.5,-10.93,-17.45,-17.69,0,*58
1513501358.22,2925,6.38,72590.3,-10.93,-17.45,-17.73,0,*52
1513501359.49,2926,6.38,72588.0,-10.95,-17.59,-17.87,0,*51
1513501360.72,2927,6.38,72584.8,-10.93,-17.55,-17.87,0,*5A
1513501361.98,2928,6.38,72590.3,-10.95,-17.73,-17.93,0,*52
1513501363.19,2929,6.38,72584.8,-10.93,-17.69,-17.87,0,*5B
1513501364.47,2930,6.38,72590.3,-10.95,-17.79,-18.01,0,*55
1513501365.72,2931,6.38,72586.3,-10.95,-17.73,-18.01,0,*5E
1513501367.01,2932,6.38,72586.5,-10.95,-17.79,-18.01,0,*57
1513501368.27,2933,6.38,72584.3,-10.95,-17.87,-18.01,0,*57
1513501369.55,2934,6.38,72584.3,-10.95,-17.79,-18.01,0,*51
1513501370.81,2935,6.38,72588.3,-10.95,-17.87,-18.01,0,*51
1513501372.05,2936,6.38,72584.8,-10.93,-17.83,-17.97,0,*50
1513501373.28,2937,6.38,72590.5,-10.99,-17.83,-18.07,0,*5D
1513501374.52,2938,6.38,72584.3,-10.97,-17.93,-18.07,0,*5D
1513501375.76,2939,6.38,72586.3,-10.99,-17.83,-18.07,0,*53
1513501377.0,2940,6.38,72586.8,-10.97,-17.93,-18.11,0,*55
1513501378.26,2941,6.31,72582.5,-10.95,-17.87,-18.01,0,*52
1513501379.52,2942,6.38,72588.5,-10.99,-17.93,-18.11,0,*59
1513501380.78,2943,6.38,72590.3,-10.99,-17.93,-18.11,0,*58
1513501382.02,2944,6.38,72588.3,-11.01,-17.93,-18.11,0,*5F
1513501383.28,2945,6.38,72588.5,-10.99,-17.97,-18.11,0,*5A
1513501384.52,2946,6.38,72586.3,-11.01,-17.97,-18.07,0,*5E
1513501385.77,2947,6.38,72584.8,-11.01,-17.97,-18.11,0,*58
1513501387.03,2948,6.38,72584.5,-11.03,-18.01,-18.11,0,*55
1513501388.27,2949,6.38,72590.0,-11.01,-18.01,-18.11,0,*56
1513501389.49,2950,6.38,72586.0,-11.01,-18.07,-18.11,0,*58
1513501390.75,2951,6.38,72586.5,-11.03,-18.01,-18.17,0,*5B
1513501392.0,2952,6.38,72586.3,-11.03,-18.01,-18.17,0,*58
1513501393.26,2953,6.38,72588.5,-11.03,-18.01,-18.17,0,*59
1513501394.53,2954,6.38,72586.3,-11.03,-18.01,-18.11,0,*58
1513501395.79,2955,6.38,72584.5,-11.03,-18.01,-18.11,0,*59
1513501397.05,2956,6.38,72586.8,-11.03,-18.01,-18.17,0,*5C
1513501398.31,2957,6.38,72586.0,-11.03,-18.01,-18.11,0,*5B
1513501399.55,2958,6.38,72590.5,-11.03,-18.11,-18.11,0,*55
1513501400.8,2959,6.38,72586.3,-11.05,-18.01,-18.11,0,*53
1513501402.04,2960,6.38,72588.0,-11.05,-18.01,-18.11,0,*59
1513501403.27,2961,6.38,72588.0,-11.09,-18.07,-18.21,0,*51
1513501404.49,2962,6.38,72588.8,-11.09,-18.17,-18.21,0,*53
1513501405.7,2963,6.38,72584.3,-11.05,-18.07,-18.21,0,*5F
1513501406.95,2964,6.38,72588.5,-11.05,-18.01,-18.11,0,*5D
1513501408.17,2965,6.38,72584.5,-11.09,-18.07,-18.17,0,*50
1513501409.4,2966,6.38,72586.5,-11.09,-18.07,-18.17,0,*53
1513501410.65,2967,6.38,72590.3,-11.09,-18.01,-18.17,0,*54
1513501411.9,2968,6.38,72586.5,-11.09,-18.01,-18.07,0,*5A
1513501413.16,2969,6.38,72590.0,-11.09,-18.01,-18.07,0,*5B
1513501414.42,2970,6.38,72586.8,-11.13,-17.97,-18.11,0,*5F
1513501415.68,2971,6.38,72586.3,-11.11,-17.93,-18.01,0,*59
1513501416.91,2972,6.38,72590.8,-11.11,-17.93,-18.07,0,*5C
1513501418.13,2973,6.38,72586.3,-11.11,-17.87,-18.07,0,*58
1513501419.39,2974,6.38,72590.8,-11.13,-17.93,-18.11,0,*5F
1513501420.65,2975,6.38,72584.8,-11.13,-17.97,-18.07,0,*5D
1513501421.92,2976,6.38,72590.5,-11.13,-17.93,-18.11,0,*5D
1513501423.15,2977,6.38,72586.3,-11.11,-17.87,-18.01,0,*5A
1513501424.4,2978,6.38,72586.3,-11.11,-17.79,-18.01,0,*54
1513501425.63,2979,6.38,72586.8,-11.17,-17.87,-18.17,0,*55
1513501426.85,2980,6.38,72590.3,-11.15,-17.83,-18.11,0,*53
1513501428.06,2981,6.38,72590.3,-11.15,-17.83,-18.07,0,*55
1513501429.27,2982,6.38,72590.8,-11.15,-17.83,-18.07,0,*56
1513501430.49,2983,6.38,72586.3,-11.15,-17.87,-18.11,0,*54
1513501431.73,2984,6.38,72586.5,-11.17,-17.83,-18.11,0,*55
1513501432.98,2985,6.38,72590.3,-11.15,-17.79,-17.97,0,*52
1513501434.21,2986,6.38,72584.5,-11.15,-17.69,-17.93,0,*54
1513501435.44,2987,6.38,72584.0,-11.15,-17.69,-17.93,0,*55
1513501436.7,2988,6.38,72584.8,-11.17,-17.73,-17.97,0,*57
1513501437.95,2989,6.38,72588.8,-11.15,-17.63,-17.97,0,*55
1513501439.21,2990,6.38,72586.3,-11.15,-17.59,-17.93,0,*50
1513501440.49,2991,6.38,72588.8,-11.17,-17.63,-17.97,0,*5E
1513501441.73,2992,6.38,72586.3,-11.17,-17.69,-17.87,0,*56
1513501442.99,2993,6.38,72586.3,-11.17,-17.55,-17.83,0,*5C
1513501444.25,2994,6.38,72584.3,-11.17,-17.55,-17.83,0,*5B
1513501445.52,2995,6.38,72586.3,-11.17,-17.55,-17.87,0,*5E
1513501446.78,2996,6.38,72588.8,-11.17,-17.55,-17.87,0,*5D
1513501448.04,2997,6.38,72588.8,-11.17,-17.55,-17.83,0,*58
1513501449.3,2998,6.38,72590.5,-11.21,-17.55,-17.87,0,*56
1513501450.54,2999,6.38,72586.5,-11.19,-17.55,-17.87,0,*5C
1513501451.79,3000,6.38,72586.0,-11.19,-17.45,-17.87,0,*55
1513501453.05,3001,6.31,72580.0,-11.21,-17.59,-17.87,0,*52
1513501454.31,3002,6.38,72584.8,-11.21,-17.59,-17.87,0,*51
1513501455.56,3003,6.38,72588.5,-11.19,-17.45,-17.87,0,*56
1513501456.79,3004,6.38,72586.0,-11.19,-17.55,-17.87,0,*50
1513501458.08,3005,6.38,72588.8,-11.21,-17.41,-17.79,0,*5E
1513501459.32,3006,6.38,72586.0,-11.19,-17.45,-17.73,0,*58
1513501460.56,3007,6.38,72584.3,-11.19,-17.45,-17.73,0,*59
1513501461.82,3008,6.38,72586.5,-11.21,-17.41,-17.73,0,*59
1513501463.11,3009,6.38,72584.5,-11.21,-17.41,-17.79,0,*52
1513501464.37,3010,6.38,72588.5,-11.19,-17.41,-17.79,0,*51
1513501465.64,3011,6.38,72588.5,-11.19,-17.45,-17.79,0,*54
1513501466.93,3012,6.38,72582.5,-11.21,-17.45,-17.79,0,*5C
1513501468.22,3013,6.38,72586.3,-11.21,-17.41,-17.79,0,*59
1513501469.5,3014,6.38,72586.8,-11.21,-17.45,-17.93,0,*5E
1513501470.76,3015,6.38,72584.8,-11.19,-17.41,-17.93,0,*50
1513501472.05,3016,6.38,72584.3,-11.21,-17.41,-17.93,0,*58
1513501473.29,3017,6.38,72586.5,-11.19,-17.45,-17.87,0,*53
1513501474.54,3018,6.38,72586.5,-11.19,-17.41,-17.87,0,*58
1513501475.82,3019,6.38,72588.0,-11.21,-17.45,-17.93,0,*53
1513501477.1,3020,6.38,72586.0,-11.21,-17.59,-17.93,0,*54
1513501478.39,3021,6.38,72588.8,-11.21,-17.59,-18.01,0,*51
1513501479.67,3022,6.38,72586.5,-11.21,-17.59,-18.01,0,*52
1513501480.91,3023,6.38,72586.3,-11.21,-17.69,-18.07,0,*56
1513501482.16,3024,6.38,72584.3,-11.21,-17.69,-18.01,0,*57
1513501483.42,3025,6.38,72582.3,-11.21,-17.69,-17.93,0,*52
1513501484.66,3026,6.38,72584.5,-11.19,-17.59,-17.87,0,*5C
1513501485.94,3027,6.38,72584.5,-11.21,-17.59,-17.93,0,*53
1513501487.19,3028,6.38,72586.3,-11.21,-17.69,-17.93,0,*5F
1513501488.45,3029,6.38,72586.3,-11.21,-17.73,-18.01,0,*51
1513501489.71,3030,6.38,72590.3,-11.21,-17.79,-18.07,0,*55
1513501490.96,3031,6.38,72584.0,-11.21,-17.79,-18.17,0,*55
1513501492.19,3032,6.38,72586.8,-11.21,-17.73,-18.07,0,*5D
1513501493.43,3033,6.38,72586.0,-11.23,-17.79,-18.07,0,*54
1513501494.64,3034,6.38,72584.0,-11.23,-17.87,-18.17,0,*53
1513501495.89,3035,6.38,72584.3,-11.21,-17.93,-18.17,0,*55
1513501497.12,3036,6.38,72584.8,-11.23,-17.93,-18.17,0,*54
1513501498.33,3037,6.38,72584.0,-11.23,-18.07,-18.21,0,*52
1513501499.55,3038,6.38,72584.0,-11.23,-18.07,-18.21,0,*5D
1513501500.75,3039,6.38,72586.0,-11.23,-18.17,-18.21,0,*5D
1513501501.97,3040,6.38,72586.8,-11.23,-18.07,-18.21,0,*52
1513501503.18,3041,6.38,72586.8,-11.23,-18.17,-18.21,0,*52
1513501504.39,3042,6.38,72584.0,-11.23,-18.07,-18.21,0,*50
1513501505.6,3043,6.38,72586.0,-11.23,-18.07,-18.17,0,*54
1513501506.8,3044,6.38,72586.8,-11.23,-18.07,-18.17,0,*53
1513501508.05,3045,6.38,72588.0,-11.25,-18.07,-18.11,0,*52
1513501509.31,3046,6.38,72586.3,-11.23,-18.01,-18.01,0,*50
1513501510.57,3047,6.38,72588.3,-11.25,-17.97,-18.07,0,*51
1513501511.84,3048,6.38,72590.0,-11.25,-17.97,-18.11,0,*59
1513501513.06,3049,6.38,72586.8,-11.23,-18.07,-18.07,0,*5F
1513501514.27,3050,6.38,72586.5,-11.23,-18.07,-18.07,0,*57
1513501515.48,3051,6.38,72588.3,-11.23,-18.17,-18.07,0,*57
1513501516.72,3052,6.38,72584.3,-11.25,-18.21,-18.21,0,*53
1513501517.95,3053,6.38,72586.0,-11.25,-18.21,-18.11,0,*51
1513501519.19,3054,6.38,72586.0,-11.25,-18.11,-18.11,0,*55
1513501520.43,3055,6.38,72590.0,-11.25,-18.07,-18.07,0,*54
1513501521.69,3056,6.38,72590.0,-11.25,-18.11,-17.97,0,*56
1513501522.95,3057,6.38,72586.5,-11.25,-18.07,-17.93,0,*54
1513501524.21,3058,6.38,72584.5,-11.25,-18.07,-17.97,0,*5F
1513501525.47,3059,6.38,72586.8,-11.25,-18.07,-17.93,0,*5A
1513501526.73,3060,6.38,72590.8,-11.25,-18.07,-17.93,0,*50
1513501527.97,3061,6.38,72584.5,-11.23,-18.01,-17.87,0,*54
1513501529.19,3062,6.38,72580.3,-11.23,-17.87,-17.87,0,*56
1513501530.45,3063,6.38,72584.0,-11.25,-17.93,-17.83,0,*50
1513501531.71,3064,6.38,72584.5,-11.25,-17.83,-17.79,0,*53
1513501532.99,3065,6.38,72586.3,-11.25,-17.79,-17.79,0,*57
1513501534.23,3066,6.38,72582.5,-11.23,-17.73,-17.59,0,*5A
1513501535.51,3067,6.38,72586.8,-11.25,-17.79,-17.63,0,*5E
1513501536.76,3068,6.38,72584.3,-11.25,-17.93,-17.73,0,*54
1513501538.0,3069,6.38,72586.3,-11.25,-17.83,-17.73,0,*54
1513501539.23,3070,6.38,72584.3,-11.25,-17.83,-17.73,0,*5C
1513501540.51,3071,6.38,72586.0,-11.25,-17.93,-17.63,0,*5D
1513501541.78,3072,6.38,72584.8,-11.31,-17.97,-17.79,0,*54
1513501543.02,3073,6.38,72582.0,-11.27,-17.83,-17.63,0,*5C
1513501544.28,3074,6.38,72584.0,-11.27,-17.79,-17.59,0,*57
1513501545.49,3075,6.38,72586.5,-11.27,-17.73,-17.49,0,*5D
1513501546.69,3076,6.38,72580.5,-11.23,-17.73,-17.49,0,*5A
1513501547.95,3077,6.38,72586.8,-11.25,-17.59,-17.49,0,*55
1513501549.23,3078,6.38,72584.0,-11.25,-17.59,-17.45,0,*56
1513501550.48,3079,6.38,72584.3,-11.25,-17.49,-17.35,0,*51
1513501551.75,3080,6.38,72588.8,-11.25,-17.45,-17.35,0,*5B
1513501553.01,3081,6.38,72586.0,-11.25,-17.45,-17.31,0,*5E
1513501554.26,3082,6.38,72584.8,-11.25,-17.31,-17.21,0,*5F
1513501555.55,3083,6.38,72584.5,-11.25,-17.21,-17.17,0,*5A
1513501556.81,3084,6.38,72588.5,-11.25,-17.35,-17.21,0,*5D
1513501558.07,3085,6.38,72584.5,-11.25,-17.31,-17.07,0,*5C
1513501559.36,3086,6.38,72584.0,-11.25,-17.17,-17.03,0,*5F
1513501560.66,3087,6.38,72588.8,-11.25,-17.17,-17.07,0,*5A
1513501561.95,3088,6.38,72586.8,-11.25,-17.07,-17.03,0,*50
1513501563.17,3089,6.38,72584.3,-11.25,-16.93,-16.93,0,*55
1513501564.4,3090,6.38,72588.0,-11.25,-16.89,-16.89,0,*5D
1513501565.65,3091,6.38,72586.5,-11.25,-16.75,-16.75,0,*5C
1513501566.93,3092,6.38,72586.0,-11.25,-16.69,-16.69,0,*5F
1513501568.17,3093,6.38,72588.8,-11.25,-16.59,-16.59,0,*5E
1513501569.39,3094,6.38,72584.5,-11.23,-16.55,-16.55,0,*5F
1513501570.63,3095,6.38,72584.3,-11.23,-16.55,-16.51,0,*5A
1513501571.89,3096,6.38,72586.0,-11.21,-16.41,-16.51,0,*5E
1513501573.12,3097,6.38,72586.3,-11.23,-16.41,-16.51,0,*5D
1513501574.38,3098,6.38,72584.3,-11.21,-16.41,-16.51,0,*50
1513501575.59,3099,6.38,72584.5,-11.23,-16.37,-16.37,0,*52
1513501576.83,3100,6.38,72586.5,-11.23,-16.27,-16.41,0,*53
1513501578.09,3101,6.38,72586.5,-11.21,-16.27,-16.37,0,*51
1513501579.37,3102,6.38,72590.5,-11.21,-16.23,-16.23,0,*53
1513501580.66,3103,6.38,72588.3,-11.21,-16.13,-16.23,0,*51
1513501581.91,3104,6.38,72588.0,-11.21,-15.99,-16.23,0,*57
1513501583.14,3105,6.38,72588.5,-11.19,-15.99,-16.23,0,*5D
1513501584.37,3106,6.38,72584.5,-11.19,-15.99,-16.09,0,*56
1513501585.61,3107,6.38,72586.5,-11.19,-15.95,-16.09,0,*5B
1513501586.88,3108,6.38,72586.5,-11.19,-15.85,-16.09,0,*55
1513501588.13,3109,6.38,72588.0,-11.17,-15.81,-16.03,0,*54
1513501589.37,3110,6.38,72584.5,-11.17,-15.75,-16.03,0,*57
1513501590.6,3111,6.38,72586.5,-11.15,-15.71,-15.85,0,*5D
1513501591.84,3112,6.38,72590.3,-11.15,-15.71,-15.85,0,*5E
1513501593.07,3113,6.38,72586.3,-11.13,-15.67,-15.99,0,*53
1513501594.33,3114,6.38,72584.3,-11.13,-15.85,-16.03,0,*58
1513501595.59,3115,6.38,72588.8,-11.13,-15.85,-16.03,0,*59
1513501596.82,3116,6.38,72590.3,-11.11,-15.81,-15.99,0,*5C
1513501598.05,3117,6.38,72586.3,-11.11,-15.81,-15.95,0,*51
1513501599.31,3118,6.38,72586.8,-11.11,-15.81,-15.85,0,*5F
1513501600.54,3119,6.38,72586.0,-11.11,-15.67,-15.85,0,*56
1513501601.78,3120,6.38,72586.5,-11.05,-15.57,-15.75,0,*55
1513501603.02,3121,6.38,72584.8,-11.05,-15.43,-15.63,0,*56
1513501604.26,3122,6.38,72586.3,-11.05,-15.43,-15.49,0,*5D
1513501605.51,3123,6.38,72584.5,-11.03,-15.29,-15.49,0,*56
1513501606.77,3124,6.38,72584.3,-11.03,-15.29,-15.43,0,*5B
1513501608.02,3125,6.38,72586.0,-11.01,-15.25,-15.39,0,*59
1513501609.26,3126,6.38,72590.5,-11.01,-15.29,-15.39,0,*56
1513501610.5,3127,6.38,72584.3,-10.97,-15.25,-15.39,0,*55
1513501611.76,3128,6.38,72586.5,-10.99,-15.29,-15.39,0,*58
1513501613.03,3129,6.38,72586.8,-10.99,-15.25,-15.39,0,*55
1513501614.27,3130,6.38,72584.0,-10.97,-15.25,-15.39,0,*53
1513501615.51,3131,6.38,72586.5,-10.95,-15.11,-15.25,0,*5A
1513501616.72,3132,6.38,72588.0,-10.93,-15.07,-15.25,0,*58
1513501617.95,3133,6.38,72586.3,-10.93,-15.15,-15.21,0,*5E
1513501619.18,3134,6.38,72588.3,-10.93,-15.15,-15.21,0,*59
1513501620.39,3135,6.38,72584.5,-10.93,-15.15,-15.15,0,*5F
1513501621.6,3136,6.38,72590.5,-10.89,-15.15,-15.15,0,*57
1513501622.81,3137,6.38,72588.5,-10.89,-15.11,-15.11,0,*56
1513501624.02,3138,6.38,72586.3,-10.89,-15.15,-15.15,0,*59
1513501625.23,3139,6.38,72588.8,-10.89,-15.15,-15.25,0,*5B
1513501626.45,3140,6.38,72586.8,-10.89,-15.15,-15.15,0,*56
1513501627.68,3141,6.38,72586.5,-10.87,-15.15,-15.15,0,*59
1513501628.94,3142,6.38,72584.8,-10.83,-15.11,-15.21,0,*5D
1513501630.19,3143,6.38,72590.0,-10.83,-15.21,-15.11,0,*5C
1513501631.47,3144,6.38,72584.8,-10.83,-15.21,-15.21,0,*58
1513501632.75,3145,6.38,72584.8,-10.83,-15.21,-15.21,0,*59
1513501634.03,3146,6.38,72586.0,-10.83,-15.21,-15.21,0,*5A
1513501635.28,3147,6.38,72586.8,-10.81,-15.21,-15.21,0,*59
1513501636.52,3148,6.38,72590.3,-10.81,-15.25,-15.21,0,*52
1513501637.77,3149,6.38,72586.0,-10.81,-15.21,-15.21,0,*57
1513501639.01,3150,6.38,72584.0,-10.79,-15.15,-15.07,0,*5B
1513501640.24,3151,6.38,72588.0,-10.79,-15.15,-15.07,0,*5A
1513501641.5,3152,6.38,72588.8,-10.79,-15.21,-15.15,0,*5D
1513501642.75,3153,6.38,72584.5,-10.79,-15.21,-15.07,0,*5F
1513501643.97,3154,6.38,72584.8,-10.77,-15.21,-15.07,0,*56
1513501645.21,3155,6.38,72586.8,-10.75,-15.15,-15.11,0,*55
1513501646.47,3156,6.38,72584.8,-10.75,-15.15,-15.01,0,*57
1513501647.68,3157,6.38,72586.0,-10.77,-15.15,-15.07,0,*52
1513501648.91,3158,6.38,72588.5,-10.77,-15.15,-15.01,0,*5B
1513501650.14,3159,6.38,72584.8,-10.77,-15.07,-15.01,0,*59
1513501651.4,3160,6.38,72588.5,-10.75,-15.15,-14.97,0,*5C
1513501652.63,3161,6.38,72592.3,-10.75,-15.11,-14.89,0,*56
1513501653.89,3162,6.38,72588.0,-10.73,-15.01,-14.97,0,*5D
1513501655.13,3163,6.38,72588.8,-10.73,-15.11,-14.97,0,*5D
1513501656.4,3164,6.38,72586.8,-10.71,-14.97,-14.83,0,*52
1513501657.68,3165,6.38,72588.5,-10.71,-14.93,-14.83,0,*57
1513501658.94,3166,6.38,72586.0,-10.69,-14.97,-14.83,0,*59
1513501660.2,3167,6.38,72584.0,-10.69,-14.93,-14.83,0,*5C
1513501661.42,3168,6.38,72590.0,-10.69,-14.97,-14.69,0,*53
1513501662.67,3169,6.38,72586.3,-10.69,-14.97,-14.79,0,*53
1513501663.91,3170,6.38,72586.3,-10.67,-14.89,-14.65,0,*57
1513501665.15,3171,6.38,72584.0,-10.67,-14.89,-14.61,0,*52
1513501666.38,3172,6.38,72588.8,-10.69,-14.93,-14.65,0,*50
1513501667.62,3173,6.38,72590.8,-10.69,-14.79,-14.65,0,*55
1513501668.9,3174,6.38,72590.0,-10.67,-14.75,-14.47,0,*50
1513501670.17,3175,6.38,72588.5,-10.67,-14.61,-14.47,0,*54
1513501671.37,3176,6.38,72586.8,-10.65,-14.61,-14.37,0,*52
1513501672.61,3177,6.38,72590.5,-10.65,-14.51,-14.37,0,*50
1513501673.86,3178,6.38,72588.8,-10.65,-14.47,-14.33,0,*5C
1513501675.12,3179,6.38,72588.8,-10.63,-14.47,-14.19,0,*53
1513501676.39,3180,6.38,72584.3,-10.63,-14.47,-14.33,0,*5D
1513501677.62,3181,6.38,72584.5,-10.63,-14.37,-14.15,0,*5F
1513501678.86,3182,6.38,72586.0,-10.57,-14.29,-14.01,0,*51
1513501680.11,3183,6.38,72588.5,-10.57,-14.19,-14.05,0,*57
1513501681.35,3184,6.44,72594.5,-10.57,-14.23,-13.97,0,*55
1513501682.6,3185,6.38,72588.8,-10.57,-14.19,-13.97,0,*5D
1513501683.85,3186,6.38,72588.0,-10.57,-14.19,-13.97,0,*5E
1513501685.09,3187,6.38,72586.3,-10.57,-14.19,-13.97,0,*5F
1513501686.36,3188,6.38,72586.3,-10.55,-14.37,-14.05,0,*52
1513501687.62,3189,6.38,72586.3,-10.55,-14.51,-14.29,0,*5D
1513501688.86,3190,6.38,72590.3,-10.53,-14.51,-14.33,0,*58
1513501690.13,3191,6.38,72588.5,-10.55,-14.51,-14.37,0,*5B
1513501691.34,3192,6.38,72586.5,-10.53,-14.33,-14.33,0,*5E
1513501692.56,3193,6.38,72584.5,-10.53,-14.23,-14.19,0,*56
1513501693.82,3194,6.38,72590.0,-10.51,-14.23,-14.05,0,*5E
1513501695.06,3195,6.38,72586.8,-10.49,-14.43,-14.19,0,*5D
1513501696.27,3196,6.38,72586.0,-10.49,-14.29,-14.19,0,*52
1513501697.5,3197,6.38,72584.3,-10.49,-14.29,-14.01,0,*5A
1513501698.74,3198,6.38,72590.5,-10.49,-14.29,-14.01,0,*55
1513501699.95,3199,6.38,72588.3,-10.45,-14.15,-13.93,0,*5B
1513501701.2,3200,6.38,72586.0,-10.45,-14.15,-13.97,0,*5C
1513501702.41,3201,6.38,72586.3,-10.45,-14.23,-14.11,0,*51
1513501703.61,3202,6.38,72588.3,-10.45,-14.29,-14.11,0,*58
1513501704.82,3203,6.38,72590.0,-10.45,-14.23,-14.11,0,*53
1513501706.03,3204,6.38,72588.8,-10.45,-14.23,-14.11,0,*54
1513501707.24,3205,6.38,72584.5,-10.43,-14.29,-14.11,0,*59